Simultaneous Nadir Overpasses (SNOs) Predictions

Prediction of SNOs between GOES-16 and TERRA Satellite Orbit:

Table of predicted SNOs for the next 14.0 days since TLE Epoch: 5/16/2025
Index Date Time (GOES-16) GOES-16 Lat,Lon TERRA Lat,Lon Distance(km) Time Diff (sec)
1 05/18/2025 03:34:29 -0.06, -94.53 0.25, -92.94 179.76 80
2 05/18/2025 15:56:39 0.06, -94.83 0.64, -97.70 325.63 80
3 05/20/2025 15:34:57 0.05, -95.88 -0.53, -93.15 310.22 80
4 05/21/2025 03:57:16 -0.05, -96.11 -0.41, -97.94 206.97 80
5 05/23/2025 03:35:33 -0.05, -97.16 0.72, -93.37 429.51 80
6 05/23/2025 15:57:43 0.05, -97.46 0.17, -98.13 75.73 80
7 05/26/2025 03:55:39 -0.04, -98.74 0.06, -98.36 43.56 80
8 05/26/2025 16:17:47 0.04, -99.04 0.90,-103.11 461.90 80
9 05/28/2025 15:56:04 0.03,-100.09 -0.26, -98.55 174.18 80
10 05/29/2025 04:18:22 -0.03,-100.32 -0.69,-103.33 342.79 80
